This is the latest recevied weather packets stored in our database for station/object OE3KJN-13. If no packets are shown the sender has not sent any weather packets the latest 1 day(s).
| Time | Temp. | Humidity | Pressure | Rain* | Wind** | Luminosity | Snow |
|---|---|---|---|---|---|---|---|
| 1777988630 | 30° C | 100% | 0 hPa | 0 mm | 2.68 m/s, 161° | - | - |
| 1777988330 | 30.56° C | 100% | 0 hPa | 0 mm | 4.92 m/s, 244° | - | - |
| 1777988029 | 30° C | 100% | 0 hPa | 0 mm | 4.02 m/s, 286° | - | - |
| 1777987729 | 30° C | 100% | 0 hPa | 0 mm | 3.13 m/s, 206° | - | - |
| 1777987429 | 30° C | 100% | 0 hPa | 0 mm | 2.68 m/s, 330° | - | - |
| 1777987128 | 30° C | 100% | 0 hPa | 0 mm | 4.02 m/s, 295° | - | - |
| 1777986828 | 30° C | 100% | 0 hPa | 0 mm | 8.49 m/s, 203° | - | - |
| 1777986528 | 30.56° C | 100% | 0 hPa | 0 mm | 3.58 m/s, 289° | - | - |
| 1777986227 | 30° C | 100% | 0 hPa | 0 mm | 8.05 m/s, 260° | - | - |
| 1777985927 | 30° C | 100% | 0 hPa | 0 mm | 4.02 m/s, 284° | - | - |
| 1777985627 | 29.44° C | 100% | 0 hPa | 0 mm | 6.26 m/s, 274° | - | - |
| 1777985327 | 30° C | 100% | 0 hPa | 0 mm | 3.58 m/s, 302° | - | - |
| 1777985026 | 29.44° C | 100% | 0 hPa | 0 mm | 4.92 m/s, 315° | - | - |
| 1777984726 | 29.44° C | 100% | 0 hPa | 0 mm | 3.13 m/s, 323° | - | - |
| 1777984426 | 30° C | 100% | 0 hPa | 0 mm | 5.81 m/s, 240° | - | - |
| 1777984125 | 29.44° C | 100% | 0 hPa | 0 mm | 4.92 m/s, 206° | - | - |
| 1777983825 | 28.33° C | 100% | 0 hPa | 0 mm | 3.13 m/s, 275° | - | - |
| 1777983525 | 28.33° C | 100% | 0 hPa | 0 mm | 0.45 m/s, 84° | - | - |
| 1777983225 | 28.33° C | 100% | 0 hPa | 0 mm | 5.36 m/s, 254° | - | - |
| 1777982924 | 28.33° C | 100% | 0 hPa | 0 mm | 6.26 m/s, 258° | - | - |
| 1777982624 | 28.33° C | 100% | 0 hPa | 0 mm | 4.47 m/s, 237° | - | - |
| 1777982324 | 28.33° C | 100% | 0 hPa | 0 mm | 6.71 m/s, 275° | - | - |
| 1777982023 | 28.33° C | 100% | 0 hPa | 0 mm | 4.47 m/s, 322° | - | - |
| 1777981723 | 28.33° C | 100% | 0 hPa | 0 mm | 6.26 m/s, 275° | - | - |
| 1777981423 | 28.33° C | 100% | 0 hPa | 0 mm | 2.24 m/s, 317° | - | - |
* Rain latest hour (hover to see other rain measurements)
** Current wind speed in m/s (hover to see current wind gust speed)